• In Deutschland
  • Länderverzeichnis
  • Für 7 Tage
  • Wassertemperatur
  • Satellitenkarten
  • Wetterkarte
  • Widgets
  • user-avatar
    Anmelden

    Stündliche Wetter Elias Fausto

    Heute, 20 Januar, Samstag

    Zeit Temperatur Niederschläge Wind Luftdruck Luftfeuchtigkeit
    00:00 +24°C° 0,1 mm 1 m/S 713 mmHg 86%
    01:00 +24°C° 0 mm 1 m/S 712 mmHg 87%
    02:00 +24°C° 0 mm 1 m/S 712 mmHg 88%
    03:00 +23°C° 0 mm 2 m/S 712 mmHg 88%
    04:00 +23°C° 0 mm 2 m/S 712 mmHg 89%
    05:00 +23°C° 0 mm 2 m/S 712 mmHg 89%
    06:00 +23°C° 0 mm 2 m/S 712 mmHg 89%
    07:00 +24°C° 0,1 mm 2 m/S 713 mmHg 85%
    08:00 +25°C° 0,1 mm 2 m/S 713 mmHg 81%
    09:00 +26°C° 0,1 mm 2 m/S 713 mmHg 77%
    10:00 +28°C° 0,2 mm 2 m/S 713 mmHg 71%
    11:00 +29°C° 0,2 mm 2 m/S 713 mmHg 65%
    12:00 +31°C° 0,2 mm 2 m/S 713 mmHg 59%
    13:00 +31°C° 1 mm 2 m/S 713 mmHg 60%
    14:00 +31°C° 1 mm 2 m/S 713 mmHg 60%
    15:00 +31°C° 1 mm 2 m/S 712 mmHg 61%
    16:00 +30°C° 2,1 mm 2 m/S 712 mmHg 67%
    17:00 +29°C° 2,1 mm 2 m/S 712 mmHg 73%
    18:00 +28°C° 2,1 mm 2 m/S 712 mmHg 80%
    19:00 +27°C° 1 mm 2 m/S 712 mmHg 81%
    20:00 +26°C° 1 mm 2 m/S 712 mmHg 83%
    21:00 +25°C° 1 mm 2 m/S 712 mmHg 85%
    22:00 +24°C° 0 mm 2 m/S 713 mmHg 85%
    23:00 +24°C° 0 mm 2 m/S 713 mmHg 86%

    Morgen, 21 Januar, Sonntag

    Zeit Temperatur Niederschläge Wind Luftdruck Luftfeuchtigkeit
    00:00 +24°C° 0 mm 2 m/S 713 mmHg 87%
    01:00 +24°C° 0 mm 2 m/S 713 mmHg 87%
    02:00 +23°C° 0 mm 2 m/S 712 mmHg 88%
    03:00 +23°C° 0 mm 2 m/S 712 mmHg 89%
    04:00 +23°C° 0 mm 2 m/S 712 mmHg 89%
    05:00 +23°C° 0 mm 1 m/S 712 mmHg 90%
    06:00 +23°C° 0 mm 1 m/S 712 mmHg 90%
    07:00 +24°C° 0 mm 1 m/S 712 mmHg 84%
    08:00 +26°C° 0 mm 1 m/S 713 mmHg 78%
    09:00 +27°C° 0 mm 1 m/S 713 mmHg 71%
    10:00 +28°C° 0,9 mm 2 m/S 713 mmHg 68%
    11:00 +30°C° 0,9 mm 2 m/S 712 mmHg 65%
    12:00 +31°C° 0,9 mm 2 m/S 712 mmHg 62%
    13:00 +31°C° 1,8 mm 2 m/S 712 mmHg 63%
    14:00 +30°C° 1,8 mm 2 m/S 711 mmHg 64%
    15:00 +30°C° 1,8 mm 2 m/S 711 mmHg 64%
    16:00 +29°C° 2,5 mm 1 m/S 711 mmHg 70%
    17:00 +28°C° 2,5 mm 1 m/S 710 mmHg 75%
    18:00 +27°C° 2,5 mm 1 m/S 710 mmHg 80%
    19:00 +26°C° 0,7 mm 1 m/S 711 mmHg 81%
    20:00 +26°C° 0,7 mm 1 m/S 711 mmHg 82%
    21:00 +25°C° 0,7 mm 1 m/S 711 mmHg 83%
    22:00 +25°C° 0 mm 1 m/S 711 mmHg 84%
    23:00 +24°C° 0 mm 1 m/S 711 mmHg 85%

    übermorgen, 22 Januar, Montag

    Zeit Temperatur Niederschläge Wind Luftdruck Luftfeuchtigkeit
    00:00 +24°C° 0 mm 1 m/S 711 mmHg 86%
    01:00 +24°C° 0 mm 1 m/S 711 mmHg 87%
    02:00 +24°C° 0 mm 1 m/S 710 mmHg 87%
    03:00 +23°C° 0 mm 1 m/S 710 mmHg 88%
    04:00 +23°C° 0 mm 1 m/S 710 mmHg 88%
    05:00 +23°C° 0 mm 1 m/S 710 mmHg 88%
    06:00 +23°C° 0 mm 1 m/S 710 mmHg 88%
    07:00 +24°C° 0 mm 1 m/S 710 mmHg 83%
    08:00 +25°C° 0 mm 1 m/S 711 mmHg 79%
    09:00 +27°C° 0 mm 2 m/S 711 mmHg 74%
    10:00 +28°C° 0,1 mm 2 m/S 711 mmHg 70%
    11:00 +29°C° 0,1 mm 3 m/S 711 mmHg 65%
    12:00 +30°C° 0,1 mm 3 m/S 711 mmHg 61%
    13:00 +31°C° 0,3 mm 3 m/S 710 mmHg 60%
    14:00 +32°C° 0,3 mm 4 m/S 710 mmHg 59%
    15:00 +32°C° 0,3 mm 4 m/S 709 mmHg 59%
    16:00 +31°C° 0,8 mm 3 m/S 709 mmHg 64%
    17:00 +30°C° 0,8 mm 3 m/S 709 mmHg 69%
    18:00 +29°C° 0,8 mm 2 m/S 709 mmHg 74%
    19:00 +28°C° 0,3 mm 2 m/S 709 mmHg 77%
    20:00 +26°C° 0,3 mm 2 m/S 709 mmHg 80%
    21:00 +25°C° 0,3 mm 1 m/S 710 mmHg 83%
    22:00 +25°C° 0 mm 2 m/S 710 mmHg 84%
    23:00 +24°C° 0 mm 2 m/S 710 mmHg 86%

    23 Januar, Dienstag

    Zeit Temperatur Niederschläge Wind Luftdruck Luftfeuchtigkeit
    00:00 +24°C° 0 mm 2 m/S 710 mmHg 87%
    01:00 +24°C° 0 mm 2 m/S 709 mmHg 87%
    02:00 +23°C° 0 mm 1 m/S 709 mmHg 88%
    03:00 +23°C° 0 mm 1 m/S 709 mmHg 88%
    04:00 +23°C° 0 mm 1 m/S 709 mmHg 88%
    05:00 +23°C° 0 mm 2 m/S 709 mmHg 88%
    06:00 +23°C° 0 mm 2 m/S 709 mmHg 88%
    07:00 +24°C° 0 mm 2 m/S 710 mmHg 82%
    08:00 +26°C° 0 mm 2 m/S 710 mmHg 76%
    09:00 +28°C° 0 mm 2 m/S 711 mmHg 71%
    10:00 +29°C° 0,1 mm 3 m/S 711 mmHg 66%
    11:00 +31°C° 0,1 mm 3 m/S 711 mmHg 61%
    12:00 +33°C° 0,1 mm 4 m/S 711 mmHg 56%
    13:00 +33°C° 0,1 mm 4 m/S 710 mmHg 56%
    14:00 +33°C° 0,1 mm 4 m/S 709 mmHg 56%
    15:00 +34°C° 0,1 mm 4 m/S 709 mmHg 56%
    16:00 +33°C° 0,6 mm 3 m/S 709 mmHg 60%
    17:00 +31°C° 0,6 mm 3 m/S 709 mmHg 65%
    18:00 +30°C° 0,6 mm 2 m/S 709 mmHg 70%
    19:00 +29°C° 0,5 mm 2 m/S 709 mmHg 73%
    20:00 +28°C° 0,5 mm 1 m/S 710 mmHg 76%
    21:00 +26°C° 0,5 mm 1 m/S 710 mmHg 79%
    22:00 +26°C° 1 mm 1 m/S 710 mmHg 81%
    23:00 +25°C° 1 mm 1 m/S 710 mmHg 82%

    24 Januar, Mittwoch

    Zeit Temperatur Niederschläge Wind Luftdruck Luftfeuchtigkeit
    00:00 +25°C° 1 mm 1 m/S 710 mmHg 84%
    01:00 +25°C° 0 mm 1 m/S 709 mmHg 85%
    02:00 +24°C° 0 mm 1 m/S 709 mmHg 86%
    03:00 +24°C° 0 mm 1 m/S 709 mmHg 87%
    04:00 +24°C° 0 mm 1 m/S 709 mmHg 88%
    05:00 +24°C° 0 mm 1 m/S 709 mmHg 88%
    06:00 +24°C° 0 mm 1 m/S 710 mmHg 89%
    07:00 +25°C° 0 mm 2 m/S 710 mmHg 83%
    08:00 +27°C° 0 mm 2 m/S 711 mmHg 78%
    09:00 +29°C° 0 mm 3 m/S 711 mmHg 72%
    10:00 +30°C° 0,2 mm 3 m/S 711 mmHg 68%
    11:00 +31°C° 0,2 mm 3 m/S 710 mmHg 64%
    12:00 +33°C° 0,2 mm 3 m/S 710 mmHg 60%
    13:00 +33°C° 1,3 mm 3 m/S 710 mmHg 60%
    14:00 +33°C° 1,3 mm 3 m/S 709 mmHg 61%
    15:00 +33°C° 1,3 mm 3 m/S 709 mmHg 61%
    16:00 +31°C° 1,2 mm 2 m/S 709 mmHg 66%
    17:00 +31°C° 1,2 mm 2 m/S 709 mmHg 70%
    18:00 +30°C° 1,2 mm 2 m/S 709 mmHg 75%
    19:00 +29°C° 0,8 mm 2 m/S 709 mmHg 77%
    20:00 +27°C° 0,8 mm 1 m/S 709 mmHg 80%
    21:00 +26°C° 0,8 mm 1 m/S 709 mmHg 82%
    22:00 +26°C° 0,6 mm 1 m/S 709 mmHg 84%
    23:00 +26°C° 0,6 mm 1 m/S 710 mmHg 85%

    25 Januar, Donnerstag

    Zeit Temperatur Niederschläge Wind Luftdruck Luftfeuchtigkeit
    00:00 +25°C° 0,6 mm 1 m/S 710 mmHg 86%
    01:00 +25°C° 0 mm 1 m/S 709 mmHg 87%
    02:00 +25°C° 0 mm 1 m/S 709 mmHg 87%
    03:00 +25°C° 0 mm 1 m/S 708 mmHg 88%
    04:00 +24°C° 0 mm 1 m/S 709 mmHg 89%
    05:00 +24°C° 0 mm 1 m/S 709 mmHg 90%
    06:00 +24°C° 0 mm 1 m/S 709 mmHg 91%
    07:00 +25°C° 0 mm 1 m/S 709 mmHg 86%
    08:00 +27°C° 0 mm 1 m/S 710 mmHg 81%
    09:00 +28°C° 0 mm 1 m/S 710 mmHg 75%
    10:00 +30°C° 1,1 mm 1 m/S 710 mmHg 70%
    11:00 +31°C° 1,1 mm 1 m/S 710 mmHg 64%
    12:00 +33°C° 1,1 mm 1 m/S 710 mmHg 59%
    13:00 +33°C° 0,7 mm 1 m/S 709 mmHg 58%
    14:00 +33°C° 0,7 mm 1 m/S 709 mmHg 58%
    15:00 +34°C° 0,7 mm 2 m/S 708 mmHg 58%
    16:00 +31°C° 1,9 mm 2 m/S 708 mmHg 65%
    17:00 +30°C° 1,9 mm 3 m/S 708 mmHg 73%
    18:00 +28°C° 1,9 mm 4 m/S 708 mmHg 80%
    19:00 +27°C° 0,7 mm 4 m/S 708 mmHg 83%
    20:00 +26°C° 0,7 mm 4 m/S 709 mmHg 85%
    21:00 +25°C° 0,7 mm 4 m/S 709 mmHg 88%
    22:00 +23°C° 0 mm 4 m/S 709 mmHg 88%
    23:00 +23°C° 0 mm 4 m/S 709 mmHg 88%
    Mehr zeigen